Location: Spring Creek
(38.2870°N, 100.2160°W)
Time: 03:46:17
(UTC+00:00)

Lacrosse 5 - Pass Details

Date: 08 May 2021
Orbit: 715 x 724 km, 57.0° (Epoch: 15 June)

Event Time Altitude Azimuth Distance (km) Brightness Sun altitude
Exits shadow 08:18:18 49° 66° (ENE) 925 2.6 -29.7°
Drops below altitude 10° 08:22:05 10° 47° (NE) 2,203 5.2 -29.3°
Sets 08:24:28 0° 45° (NE) 3,127 6.3 -29.1°
